Location: Albany
(35.0000°S, 118.0000°E)
Time: 23:56:50
(UTC-04:00)

SJ-6B - Visible Passes

Search period start: 21 August 2014 00:00
Search period end: 31 August 2014 00:00
Orbit: 520 x 598 km, 97.8° (Epoch: 21 August)

Date Brightness Start Highest point End Pass type
(mag) Time Alt. Az. Time Alt. Az. Time Alt. Az.
21 Aug 5.9 07:27:13 10° SW 07:29:16 14° WSW 07:31:17 10° W visible
21 Aug 6.0 16:34:58 10° ENE 16:37:32 16° ESE 16:40:06 10° SSE visible
21 Aug 3.6 18:08:09 10° NNW 18:12:04 37° W 18:16:01 10° SSW visible
22 Aug 5.9 07:25:42 10° SW 07:27:52 14° WSW 07:29:59 10° W visible
22 Aug 6.0 16:33:41 10° ENE 16:36:08 15° ESE 16:38:35 10° SSE visible
22 Aug 3.5 18:06:43 10° NNW 18:10:39 38° W 18:14:37 10° SSW visible
23 Aug 5.9 07:24:12 10° SSW 07:26:27 15° WSW 07:28:40 10° WNW visible
23 Aug 6.0 16:32:24 10° E 16:34:44 15° ESE 16:37:04 10° SE visible
23 Aug 3.4 18:05:16 10° N 18:09:14 40° W 18:13:13 10° SSW visible
24 Aug 5.9 07:22:41 10° SSW 07:25:02 16° WSW 07:27:21 10° WNW visible
24 Aug 6.1 16:31:08 10° E 16:33:20 14° ESE 16:35:32 10° SE visible
24 Aug 3.4 18:03:50 10° N 18:07:49 42° W 18:11:49 10° SSW visible
25 Aug 5.8 07:21:11 10° SSW 07:23:37 16° WSW 07:26:01 10° WNW visible
25 Aug 6.1 16:29:52 10° E 16:31:56 13° ESE 16:33:59 10° SE visible
25 Aug 3.3 18:02:23 10° N 18:06:24 43° W 18:10:25 10° SSW visible
26 Aug 5.8 07:19:41 10° SSW 07:22:12 17° WSW 07:24:41 10° WNW visible
26 Aug 6.1 16:28:37 10° E 16:30:31 13° ESE 16:32:25 10° SE visible
26 Aug 3.3 18:00:56 10° N 18:04:58 45° W 18:09:00 10° SSW visible
27 Aug 5.7 07:18:11 10° SSW 07:20:46 17° WSW 07:23:20 10° WNW visible
27 Aug 6.2 16:27:23 10° E 16:29:06 12° ESE 16:30:49 10° SE visible
27 Aug 3.2 17:59:30 10° N 18:03:33 47° W 18:07:35 10° SSW visible
28 Aug 5.7 07:16:41 10° SSW 07:19:21 18° WSW 07:21:59 10° WNW visible
28 Aug 6.2 16:26:11 10° E 16:27:42 12° ESE 16:29:12 10° SE visible
28 Aug 3.2 17:58:03 10° N 18:02:07 49° W 18:06:10 10° SSW visible
29 Aug 5.6 07:15:10 10° SSW 07:17:55 19° WSW 07:20:37 10° WNW visible
29 Aug 6.3 16:25:00 10° E 16:26:17 11° ESE 16:27:33 10° SE visible
29 Aug 3.1 17:56:36 10° N 18:00:41 52° W 18:04:45 10° SSW visible
30 Aug 5.6 07:13:40 10° SSW 07:16:29 20° WSW 07:19:15 10° WNW visible
30 Aug 6.3 16:23:54 10° E 16:24:51 11° ESE 16:25:49 10° SE visible
30 Aug 3.1 17:55:09 10° N 17:59:15 54° W 18:03:19 10° SSW visible
